DAL9409 KSEA-EGLL

Flight info

Callsign DAL9409
Flight time N/A
Altitude 37000
Route MONTN2 SEA DCT ALPSE DCT YDC DCT YXC DCT HAYDN DCT 52N110W 55N100W 56N090W/N0499F390 57N080W 58N070W/M085F390 DCT URTAK DCT 5830N05000W 58N040W 57N030W 56N020W DCT RESNO/N0494F390 DCT NETKI DCT BOFUM Q37 MALUD Q38 NUGRA
Aircraft A359/H-SDE2E3GHIJ3J4J5LM1ORWXY/LB1D1

Departure

Time 2026-05-07 15:51
Airport Seattle–Tacoma International Airport (KSEA)

Arrival

Time N/A
Airport London Heathrow Airport (EGLL)
Time Latitude Longitude Altitude Speed Heading
2026-05-07 15:27 47.43796 -122.30433 397 ft 0 kts 43°
2026-05-07 15:40 47.43786 -122.30447 397 ft 4 kts 43°
2026-05-07 15:40 47.43766 -122.30471 394 ft 4 kts 25°
2026-05-07 15:40 47.43742 -122.30477 395 ft 4 kts 338°
2026-05-07 15:40 47.43723 -122.30456 399 ft 4 kts 285°
2026-05-07 15:41 47.43722 -122.30441 397 ft 1 kts 271°
2026-05-07 15:41 47.43722 -122.30438 397 ft 0 kts 271°
2026-05-07 15:42 47.43722 -122.30453 399 ft 6 kts 271°
2026-05-07 15:43 47.43723 -122.30527 397 ft 8 kts 271°
2026-05-07 15:43 47.43740 -122.30604 395 ft 8 kts 312°
2026-05-07 15:43 47.43795 -122.30632 398 ft 9 kts 352°
2026-05-07 15:43 47.43865 -122.30636 396 ft 11 kts 360°
2026-05-07 15:44 47.43946 -122.30635 396 ft 12 kts
2026-05-07 15:44 47.44037 -122.30635 397 ft 14 kts
2026-05-07 15:44 47.44139 -122.30634 399 ft 15 kts
2026-05-07 15:44 47.44249 -122.30633 398 ft 17 kts
2026-05-07 15:45 47.44369 -122.30632 398 ft 18 kts
2026-05-07 15:45 47.44495 -122.30630 396 ft 18 kts
2026-05-07 15:45 47.44624 -122.30630 399 ft 19 kts
2026-05-07 15:45 47.44760 -122.30627 396 ft 20 kts
2026-05-07 15:46 47.45053 -122.30626 395 ft 22 kts
2026-05-07 15:46 47.45208 -122.30625 397 ft 23 kts
2026-05-07 15:46 47.45289 -122.30625 399 ft 0 kts
2026-05-07 15:47 47.45310 -122.30624 396 ft 11 kts
2026-05-07 15:47 47.45393 -122.30622 397 ft 13 kts
2026-05-07 15:47 47.45487 -122.30621 399 ft 14 kts
2026-05-07 15:47 47.45588 -122.30621 398 ft 15 kts
2026-05-07 15:48 47.45697 -122.30620 396 ft 16 kts
2026-05-07 15:48 47.45815 -122.30619 399 ft 18 kts
2026-05-07 15:48 47.45942 -122.30619 397 ft 19 kts
2026-05-07 15:48 47.46076 -122.30616 398 ft 20 kts
2026-05-07 15:49 47.46217 -122.30615 396 ft 21 kts
2026-05-07 15:49 47.46338 -122.30621 399 ft 5 kts 342°
2026-05-07 15:49 47.46351 -122.30631 393 ft 7 kts 329°
2026-05-07 15:49 47.46373 -122.30696 397 ft 7 kts 270°
2026-05-07 15:50 47.46347 -122.30758 396 ft 7 kts 218°
2026-05-07 15:50 47.46300 -122.30776 397 ft 8 kts 187°
2026-05-07 15:50 47.46088 -122.30782 399 ft 60 kts 180°
2026-05-07 15:50 47.45475 -122.30787 399 ft 114 kts 180°
2026-05-07 15:51 47.44513 -122.30796 401 ft 160 kts 180°
2026-05-07 15:51 47.43426 -122.30711 1007 ft 154 kts 176°
2026-05-07 15:51 47.42360 -122.30676 1509 ft 156 kts 182°
2026-05-07 15:51 47.41194 -122.30724 1781 ft 176 kts 182°
2026-05-07 15:52 47.39899 -122.30784 1996 ft 198 kts 182°
2026-05-07 15:52 47.38453 -122.30845 2214 ft 222 kts 182°
2026-05-07 15:52 47.36817 -122.30908 2564 ft 241 kts 182°
2026-05-07 15:52 47.35134 -122.31001 3092 ft 250 kts 184°
2026-05-07 15:53 47.33425 -122.31630 3606 ft 259 kts 205°
2026-05-07 15:53 47.31990 -122.33261 4120 ft 265 kts 232°
2026-05-07 15:53 47.31150 -122.35673 4725 ft 268 kts 257°
2026-05-07 15:53 47.31079 -122.38399 5316 ft 268 kts 283°
2026-05-07 15:54 47.31796 -122.40889 6079 ft 263 kts 307°
2026-05-07 15:54 47.33118 -122.42714 6805 ft 263 kts 329°
2026-05-07 15:54 47.34846 -122.43586 7416 ft 267 kts 353°
2026-05-07 15:54 47.36694 -122.43297 8050 ft 273 kts 18°
2026-05-07 15:55 47.38322 -122.41845 8718 ft 278 kts 43°
2026-05-07 15:55 47.39634 -122.39722 9445 ft 282 kts 50°
2026-05-07 15:55 47.40806 -122.37367 10120 ft 287 kts 54°
2026-05-07 15:55 47.41948 -122.34864 10460 ft 303 kts 53°
2026-05-07 15:56 47.43371 -122.32471 10708 ft 319 kts 39°
2026-05-07 15:56 47.45281 -122.30699 10965 ft 333 kts 21°
2026-05-07 15:56 47.46737 -122.29892 11144 ft 342 kts 17°
2026-05-07 15:56 47.49085 -122.28946 11407 ft 357 kts 12°
2026-05-07 15:57 47.51553 -122.28193 11764 ft 366 kts
2026-05-07 15:57 47.54076 -122.27514 12299 ft 371 kts
2026-05-07 15:57 47.56627 -122.26833 12849 ft 375 kts
2026-05-07 15:57 47.59200 -122.26120 13416 ft 378 kts
2026-05-07 15:58 47.61817 -122.25362 13969 ft 381 kts 10°
2026-05-07 15:58 47.64403 -122.24587 14450 ft 384 kts 10°
2026-05-07 15:58 47.66937 -122.23813 14924 ft 387 kts 10°
2026-05-07 15:58 47.69587 -122.22995 15431 ft 389 kts 10°
2026-05-07 15:59 47.72249 -122.22170 15921 ft 392 kts 10°
2026-05-07 15:59 47.74929 -122.21339 16416 ft 395 kts 10°
2026-05-07 15:59 47.77627 -122.20503 16891 ft 397 kts 10°
2026-05-07 15:59 47.80344 -122.19661 17380 ft 400 kts 10°
2026-05-07 16:00 47.83080 -122.18814 17875 ft 403 kts 10°
2026-05-07 16:00 47.85829 -122.17962 18342 ft 406 kts 10°
2026-05-07 16:00 47.88606 -122.17101 18781 ft 409 kts 10°
2026-05-07 16:00 47.91401 -122.16233 19222 ft 411 kts
2026-05-07 16:01 47.94210 -122.15359 19664 ft 414 kts
2026-05-07 16:01 47.96998 -122.14491 20138 ft 415 kts
2026-05-07 16:01 47.99871 -122.13595 20611 ft 417 kts
2026-05-07 16:01 48.02725 -122.12705 21050 ft 420 kts
2026-05-07 16:02 48.05554 -122.11821 21476 ft 423 kts
2026-05-07 16:02 48.08451 -122.10916 21921 ft 426 kts
2026-05-07 16:02 48.11360 -122.10000 22361 ft 429 kts
2026-05-07 16:02 48.14249 -122.08755 22776 ft 435 kts 17°
2026-05-07 16:03 48.17022 -122.06859 23241 ft 442 kts 26°
2026-05-07 16:03 48.19582 -122.04256 23707 ft 449 kts 34°
2026-05-07 16:03 48.22010 -122.01265 24096 ft 454 kts 37°
2026-05-07 16:03 48.24379 -121.98108 24512 ft 457 kts 38°
2026-05-07 16:04 48.26718 -121.94873 24960 ft 459 kts 39°
2026-05-07 16:04 48.29060 -121.91595 25337 ft 462 kts 39°
2026-05-07 16:04 48.31417 -121.88300 25711 ft 465 kts 38°
2026-05-07 16:04 48.33798 -121.84988 26055 ft 468 kts 38°
2026-05-07 16:05 48.36201 -121.81663 26440 ft 470 kts 38°
2026-05-07 16:05 48.38615 -121.78333 26807 ft 473 kts 38°
2026-05-07 16:05 48.41050 -121.74979 27212 ft 475 kts 38°
2026-05-07 16:05 48.43494 -121.71611 27617 ft 478 kts 37°
2026-05-07 16:06 48.45948 -121.68223 28055 ft 480 kts 37°
2026-05-07 16:06 48.48413 -121.64816 28413 ft 483 kts 37°
2026-05-07 16:06 48.50897 -121.61380 28758 ft 486 kts 37°
2026-05-07 16:06 48.53395 -121.57918 29072 ft 489 kts 37°
2026-05-07 16:07 48.55901 -121.54440 29405 ft 491 kts 37°
2026-05-07 16:07 48.58419 -121.50937 29688 ft 494 kts 37°
2026-05-07 16:07 48.60958 -121.47406 30008 ft 497 kts 37°
2026-05-07 16:07 48.63471 -121.43907 30298 ft 499 kts 37°
2026-05-07 16:08 48.65883 -121.40535 30543 ft 501 kts 37°
2026-05-07 16:08 48.68439 -121.36951 30935 ft 500 kts 37°
2026-05-07 16:08 48.70984 -121.33376 31360 ft 498 kts 37°
2026-05-07 16:08 48.73518 -121.29821 31719 ft 497 kts 37°
2026-05-07 16:09 48.76053 -121.26266 32029 ft 496 kts 37°
2026-05-07 16:09 48.78585 -121.22710 32321 ft 497 kts 37°
2026-05-07 16:09 48.81121 -121.19137 32655 ft 496 kts 36°
2026-05-07 16:09 48.83636 -121.15585 33127 ft 492 kts 36°
2026-05-07 16:10 48.86123 -121.12065 33560 ft 489 kts 36°
2026-05-07 16:10 48.88618 -121.08532 33768 ft 490 kts 36°
2026-05-07 16:10 48.91111 -121.05001 33979 ft 491 kts 36°
2026-05-07 16:10 48.93611 -121.01458 34241 ft 492 kts 36°
2026-05-07 16:11 48.96109 -120.97912 34535 ft 490 kts 36°
2026-05-07 16:11 48.98596 -120.94378 34735 ft 489 kts 36°
2026-05-07 16:11 49.01089 -120.90831 34922 ft 490 kts 36°
2026-05-07 16:11 49.03561 -120.87292 35247 ft 487 kts 36°
2026-05-07 16:12 49.06030 -120.83761 35419 ft 488 kts 35°
2026-05-07 16:12 49.08492 -120.80241 35576 ft 488 kts 36°
2026-05-07 16:12 49.10967 -120.76696 35801 ft 488 kts 36°
2026-05-07 16:12 49.13443 -120.73144 36024 ft 488 kts 35°
2026-05-07 16:13 49.15913 -120.69594 36245 ft 487 kts 35°
2026-05-07 16:13 49.18378 -120.66048 36428 ft 488 kts 36°
2026-05-07 16:13 49.20848 -120.62489 36655 ft 487 kts 35°
2026-05-07 16:13 49.23273 -120.58983 36895 ft 485 kts 35°
2026-05-07 16:14 49.25724 -120.55442 37064 ft 484 kts 35°
2026-05-07 16:14 49.30648 -120.48327 37140 ft 490 kts 36°
2026-05-07 16:15 49.35265 -120.40512 37136 ft 504 kts 49°
2026-05-07 16:15 49.38266 -120.30615 37144 ft 524 kts 69°
2026-05-07 16:16 49.39339 -120.19465 37125 ft 531 kts 79°
2026-05-07 16:16 49.39948 -120.08141 37101 ft 532 kts 81°
2026-05-07 16:17 49.40510 -119.96789 37077 ft 533 kts 80°
2026-05-07 16:17 49.41104 -119.85452 37119 ft 532 kts 80°
2026-05-07 16:18 49.41697 -119.74391 37065 ft 532 kts 80°
2026-05-07 16:18 49.42301 -119.63069 37060 ft 532 kts 80°
2026-05-07 16:19 49.42888 -119.51742 37064 ft 532 kts 80°
2026-05-07 16:19 49.43467 -119.40419 37060 ft 532 kts 80°
2026-05-07 16:20 49.44035 -119.29086 37068 ft 532 kts 80°
2026-05-07 16:20 49.44592 -119.17733 37047 ft 533 kts 81°
2026-05-07 16:21 49.45135 -119.06357 37045 ft 534 kts 81°
2026-05-07 16:21 49.45666 -118.95062 37029 ft 534 kts 81°
2026-05-07 16:22 49.46192 -118.83677 37047 ft 534 kts 81°
2026-05-07 16:22 49.46704 -118.72325 37034 ft 533 kts 81°
2026-05-07 16:23 49.47207 -118.60941 37033 ft 533 kts 81°
2026-05-07 16:23 49.47697 -118.49567 37034 ft 533 kts 81°
2026-05-07 16:24 49.48174 -118.38198 37062 ft 532 kts 81°
2026-05-07 16:24 49.48639 -118.26862 37030 ft 532 kts 81°
2026-05-07 16:25 49.49096 -118.15508 37034 ft 532 kts 81°
2026-05-07 16:25 49.49543 -118.04131 37036 ft 535 kts 81°
2026-05-07 16:26 49.49978 -117.92711 37032 ft 536 kts 82°
2026-05-07 16:26 49.50400 -117.81271 37029 ft 535 kts 81°
2026-05-07 16:27 49.50813 -117.69871 37034 ft 535 kts 81°
2026-05-07 16:27 49.51217 -117.58428 37030 ft 535 kts 81°
2026-05-07 16:28 49.51605 -117.47070 37029 ft 535 kts 81°
2026-05-07 16:28 49.51985 -117.35626 37029 ft 536 kts 82°
2026-05-07 16:29 49.52354 -117.24174 37035 ft 536 kts 82°
2026-05-07 16:29 49.52710 -117.12719 37038 ft 536 kts 82°
2026-05-07 16:30 49.53064 -117.01265 37023 ft 536 kts 82°
2026-05-07 16:30 49.53399 -116.89808 37042 ft 536 kts 82°
2026-05-07 16:31 49.53715 -116.78341 37037 ft 536 kts 82°
2026-05-07 16:31 49.54025 -116.66879 37043 ft 536 kts 82°
2026-05-07 16:32 49.54328 -116.55391 37023 ft 537 kts 82°
2026-05-07 16:32 49.54619 -116.43895 37052 ft 538 kts 82°
2026-05-07 16:33 49.54894 -116.32401 37025 ft 537 kts 82°
2026-05-07 16:33 49.55163 -116.20996 37049 ft 538 kts 82°
2026-05-07 16:34 49.56412 -116.09866 37021 ft 518 kts 63°
2026-05-07 16:34 49.57835 -116.04845 37021 ft 505 kts 53°
2026-05-07 16:34 49.59713 -116.00339 37059 ft 497 kts 46°
2026-05-07 16:35 49.63853 -115.91851 37024 ft 495 kts 44°
2026-05-07 16:35 49.68103 -115.83506 37025 ft 494 kts 44°
2026-05-07 16:36 49.72332 -115.75139 37025 ft 494 kts 44°
2026-05-07 16:36 49.76534 -115.66722 37053 ft 495 kts 45°
2026-05-07 16:37 49.80719 -115.58278 37019 ft 494 kts 45°
2026-05-07 16:37 49.84901 -115.49809 37018 ft 495 kts 45°
2026-05-07 16:38 49.89069 -115.41327 37014 ft 494 kts 45°
2026-05-07 16:38 49.93240 -115.32847 37050 ft 494 kts 45°
2026-05-07 16:39 49.97395 -115.24383 37021 ft 495 kts 45°
2026-05-07 16:39 50.01556 -115.15880 37030 ft 494 kts 46°
2026-05-07 16:40 50.05684 -115.07388 37021 ft 496 kts 45°
2026-05-07 16:40 50.09826 -114.98831 37038 ft 494 kts 46°
2026-05-07 16:41 50.13968 -114.90263 37026 ft 495 kts 46°
2026-05-07 16:41 50.18102 -114.81684 37024 ft 494 kts 46°
2026-05-07 16:42 50.22139 -114.73273 37035 ft 494 kts 46°
2026-05-07 16:42 50.26255 -114.64684 37031 ft 495 kts 46°
2026-05-07 16:43 50.30371 -114.56054 37016 ft 495 kts 47°
2026-05-07 16:43 50.34395 -114.47588 37002 ft 495 kts 47°
2026-05-07 16:44 50.38501 -114.38927 37003 ft 495 kts 47°
2026-05-07 16:44 50.42579 -114.30294 37004 ft 496 kts 47°
2026-05-07 16:45 50.46677 -114.21590 36981 ft 496 kts 47°
2026-05-07 16:45 50.50496 -114.12619 36979 ft 501 kts 53°
2026-05-07 16:46 50.54051 -114.03187 36980 ft 502 kts 53°
2026-05-07 16:46 50.57619 -113.93764 36980 ft 501 kts 53°
2026-05-07 16:47 50.61237 -113.84389 36985 ft 501 kts 53°
2026-05-07 16:47 50.64872 -113.75029 36984 ft 501 kts 53°
2026-05-07 16:48 50.68502 -113.65657 36981 ft 501 kts 53°
2026-05-07 16:48 50.72120 -113.56272 36978 ft 501 kts 53°
2026-05-07 16:49 50.75124 -113.48450 36984 ft 501 kts 53°
2026-05-07 16:49 50.79313 -113.37503 36963 ft 501 kts 53°
2026-05-07 16:50 50.82910 -113.28063 36966 ft 501 kts 53°
2026-05-07 16:50 50.85918 -113.20144 36968 ft 501 kts 53°
2026-05-07 16:51 50.89501 -113.10679 36955 ft 501 kts 53°
2026-05-07 16:51 50.93075 -113.01203 36954 ft 501 kts 54°
2026-05-07 16:52 50.96623 -112.91761 36946 ft 502 kts 54°
2026-05-07 16:52 51.00187 -112.82243 36939 ft 502 kts 54°
2026-05-07 16:53 51.03747 -112.72700 36950 ft 502 kts 54°
2026-05-07 16:53 51.07296 -112.63148 36921 ft 502 kts 54°
2026-05-07 16:54 51.10835 -112.53587 36921 ft 502 kts 54°
2026-05-07 16:54 51.14368 -112.44011 36920 ft 502 kts 54°
2026-05-07 16:55 51.17896 -112.34410 36912 ft 502 kts 54°
2026-05-07 16:55 51.21391 -112.24865 36914 ft 502 kts 54°
2026-05-07 16:56 51.24934 -112.15151 36910 ft 503 kts 54°
2026-05-07 16:56 51.30167 -112.00734 36904 ft 503 kts 54°
2026-05-07 16:57 51.33661 -111.91062 36905 ft 503 kts 54°
2026-05-07 16:57 51.37151 -111.81367 36906 ft 503 kts 54°
2026-05-07 16:58 51.40632 -111.71657 36903 ft 503 kts 54°
2026-05-07 16:58 51.44108 -111.61924 36902 ft 503 kts 54°
2026-05-07 16:59 51.47572 -111.52189 36900 ft 502 kts 54°
2026-05-07 16:59 51.51024 -111.42446 36891 ft 502 kts 54°
2026-05-07 17:00 51.54468 -111.32693 36896 ft 502 kts 54°
2026-05-07 17:00 51.57901 -111.22935 36891 ft 502 kts 55°
2026-05-07 17:01 51.61328 -111.13151 36888 ft 502 kts 55°
2026-05-07 17:01 51.64743 -111.03364 36887 ft 501 kts 55°
2026-05-07 17:02 51.68148 -110.93568 36881 ft 501 kts 55°
2026-05-07 17:02 51.71546 -110.83758 36881 ft 501 kts 55°
2026-05-07 17:03 51.74928 -110.73952 36874 ft 501 kts 55°
2026-05-07 17:03 51.78288 -110.64175 36878 ft 501 kts 56°
2026-05-07 17:04 51.81663 -110.54313 36871 ft 502 kts 56°
2026-05-07 17:04 51.85030 -110.44436 36868 ft 501 kts 56°
2026-05-07 17:05 51.88389 -110.34542 36878 ft 502 kts 56°
2026-05-07 17:05 51.91739 -110.24639 36865 ft 502 kts 56°
2026-05-07 17:06 51.95080 -110.14719 36864 ft 502 kts 56°
2026-05-07 17:06 51.98411 -110.04791 36865 ft 502 kts 56°
2026-05-07 17:07 52.01762 -109.94901 36898 ft 501 kts 55°
2026-05-07 17:07 52.05318 -109.85191 36873 ft 500 kts 54°
2026-05-07 17:08 52.08907 -109.75503 36860 ft 501 kts 54°
2026-05-07 17:08 52.12442 -109.65816 36863 ft 501 kts 54°
2026-05-07 17:09 52.15993 -109.55971 36865 ft 501 kts 55°
2026-05-07 17:09 52.19486 -109.46232 36863 ft 501 kts 55°
2026-05-07 17:10 52.22994 -109.36414 36865 ft 501 kts 55°
2026-05-07 17:10 52.26498 -109.26574 36873 ft 501 kts 55°
2026-05-07 17:11 52.29991 -109.16727 36869 ft 501 kts 55°
2026-05-07 17:11 52.33480 -109.06856 36872 ft 501 kts 56°
2026-05-07 17:12 52.36963 -108.96961 36878 ft 502 kts 56°
2026-05-07 17:12 52.40435 -108.87057 36878 ft 502 kts 56°
2026-05-07 17:13 52.43895 -108.77150 36879 ft 502 kts 56°
2026-05-07 17:13 52.47330 -108.67274 36884 ft 502 kts 56°
2026-05-07 17:14 52.50783 -108.57308 36875 ft 503 kts 56°
2026-05-07 17:14 52.54232 -108.47313 36878 ft 503 kts 56°
2026-05-07 17:15 52.57663 -108.37328 36875 ft 503 kts 56°
2026-05-07 17:15 52.61094 -108.27304 36877 ft 503 kts 57°
2026-05-07 17:16 52.64516 -108.17268 36876 ft 503 kts 57°
2026-05-07 17:16 52.67933 -108.07203 36879 ft 503 kts 57°
2026-05-07 17:17 52.71334 -107.97146 36878 ft 503 kts 57°
2026-05-07 17:17 52.74739 -107.87037 36868 ft 503 kts 57°
2026-05-07 17:18 52.78132 -107.76921 36883 ft 503 kts 57°
2026-05-07 17:18 52.81512 -107.66802 36883 ft 503 kts 57°
2026-05-07 17:19 52.84882 -107.56672 36876 ft 503 kts 57°
2026-05-07 17:19 52.88221 -107.46594 36877 ft 503 kts 57°
2026-05-07 17:20 52.91576 -107.36426 36870 ft 503 kts 57°
2026-05-07 17:20 52.94914 -107.26265 36872 ft 502 kts 57°
2026-05-07 17:21 52.98248 -107.16078 36878 ft 503 kts 58°
2026-05-07 17:21 53.01573 -107.05874 36880 ft 503 kts 58°
2026-05-07 17:22 53.04891 -106.95649 36873 ft 503 kts 58°
2026-05-07 17:22 53.08198 -106.85415 36873 ft 502 kts 58°
2026-05-07 17:23 53.11496 -106.75167 36872 ft 502 kts 58°
2026-05-07 17:23 53.14786 -106.64902 36882 ft 502 kts 58°
2026-05-07 17:24 53.18064 -106.54628 36901 ft 502 kts 58°
2026-05-07 17:24 53.21335 -106.44331 36878 ft 502 kts 58°
2026-05-07 17:25 53.24591 -106.34043 36884 ft 501 kts 58°
2026-05-07 17:25 53.27841 -106.23728 36881 ft 502 kts 58°
2026-05-07 17:26 53.31081 -106.13400 36883 ft 502 kts 58°
2026-05-07 17:26 53.34302 -106.03089 36881 ft 501 kts 58°
2026-05-07 17:27 53.37498 -105.92814 36858 ft 501 kts 58°
2026-05-07 17:27 53.40705 -105.82459 36859 ft 501 kts 58°
2026-05-07 17:28 53.43905 -105.72086 36889 ft 501 kts 59°
2026-05-07 17:28 53.47096 -105.61692 36901 ft 501 kts 59°
2026-05-07 17:29 53.50272 -105.51302 36892 ft 500 kts 59°
2026-05-07 17:29 53.53430 -105.40929 36888 ft 500 kts 59°
2026-05-07 17:30 53.56585 -105.30521 36895 ft 500 kts 59°
2026-05-07 17:30 53.59732 -105.20093 36894 ft 500 kts 59°
2026-05-07 17:31 53.62864 -105.09670 36907 ft 500 kts 59°
2026-05-07 17:31 53.65995 -104.99202 36896 ft 500 kts 59°
2026-05-07 17:32 53.69113 -104.88734 36900 ft 500 kts 59°
2026-05-07 17:32 53.71701 -104.80011 36901 ft 500 kts 59°
2026-05-07 17:33 53.75328 -104.67729 36903 ft 499 kts 59°
2026-05-07 17:33 53.78410 -104.57240 36903 ft 498 kts 59°
2026-05-07 17:34 53.81486 -104.46729 36908 ft 498 kts 59°
2026-05-07 17:34 53.84551 -104.36208 36912 ft 498 kts 60°
2026-05-07 17:35 53.87608 -104.25667 36932 ft 499 kts 60°
2026-05-07 17:35 53.90650 -104.15126 36911 ft 497 kts 60°
2026-05-07 17:36 53.93681 -104.04580 36913 ft 497 kts 60°
2026-05-07 17:36 53.96682 -103.94093 36907 ft 497 kts 60°
2026-05-07 17:37 53.99694 -103.83521 36906 ft 497 kts 60°
2026-05-07 17:37 54.02695 -103.72934 36909 ft 496 kts 60°
2026-05-07 17:38 54.05683 -103.62347 36904 ft 496 kts 60°
2026-05-07 17:38 54.08656 -103.51766 36910 ft 496 kts 60°
2026-05-07 17:39 54.11628 -103.41143 36909 ft 496 kts 60°
2026-05-07 17:39 54.14588 -103.30510 36911 ft 497 kts 60°
2026-05-07 17:40 54.17535 -103.19874 36914 ft 496 kts 60°
2026-05-07 17:40 54.20473 -103.09225 36912 ft 495 kts 60°
2026-05-07 17:41 54.22906 -103.00366 36914 ft 496 kts 61°
2026-05-07 17:41 54.25818 -102.89720 36915 ft 496 kts 61°
2026-05-07 17:42 54.28728 -102.79032 36926 ft 495 kts 61°
2026-05-07 17:42 54.31623 -102.68348 36920 ft 495 kts 61°
2026-05-07 17:43 54.34510 -102.57645 36926 ft 495 kts 61°
2026-05-07 17:43 54.37385 -102.46940 36925 ft 495 kts 61°
2026-05-07 17:44 54.40253 -102.36204 36956 ft 495 kts 61°
2026-05-07 17:44 54.43108 -102.25468 36933 ft 494 kts 61°
2026-05-07 17:45 54.45943 -102.14758 36931 ft 493 kts 61°
2026-05-07 17:45 54.48763 -102.04055 36925 ft 493 kts 61°
2026-05-07 17:46 54.51583 -101.93301 36915 ft 494 kts 61°
2026-05-07 17:46 54.54396 -101.82519 36913 ft 493 kts 61°
2026-05-07 17:47 54.57146 -101.71927 36900 ft 493 kts 62°
2026-05-07 17:47 54.59934 -101.61144 36897 ft 493 kts 62°
2026-05-07 17:48 54.62713 -101.50340 36901 ft 493 kts 62°
2026-05-07 17:48 54.65480 -101.39530 36908 ft 493 kts 62°
2026-05-07 17:49 54.68240 -101.28697 36911 ft 492 kts 62°
2026-05-07 17:49 54.70980 -101.17891 36933 ft 492 kts 62°
2026-05-07 17:50 54.73719 -101.07032 36928 ft 492 kts 62°
2026-05-07 17:50 54.76448 -100.96164 36921 ft 493 kts 62°
2026-05-07 17:51 54.79170 -100.85270 36940 ft 493 kts 62°
2026-05-07 17:51 54.81883 -100.74359 36930 ft 493 kts 63°
2026-05-07 17:52 54.84587 -100.63428 36928 ft 493 kts 63°
2026-05-07 17:52 54.87284 -100.52468 36927 ft 493 kts 63°
2026-05-07 17:53 54.89964 -100.41527 36924 ft 493 kts 63°
2026-05-07 17:53 54.92634 -100.30570 36924 ft 494 kts 63°
2026-05-07 17:54 54.95302 -100.19568 36927 ft 494 kts 63°
2026-05-07 17:54 54.97949 -100.08592 36927 ft 494 kts 63°
2026-05-07 17:55 55.00330 -99.97349 36925 ft 498 kts 70°
2026-05-07 17:55 55.02102 -99.85677 36942 ft 499 kts 72°
2026-05-07 17:56 55.03754 -99.74011 36919 ft 499 kts 72°
2026-05-07 17:56 55.05395 -99.62252 36913 ft 499 kts 72°
2026-05-07 17:57 55.06772 -99.52384 36916 ft 499 kts 72°
2026-05-07 17:57 55.08676 -99.38696 36911 ft 499 kts 72°
2026-05-07 17:58 55.10303 -99.26917 36913 ft 499 kts 72°
2026-05-07 17:58 55.11918 -99.15130 36903 ft 499 kts 73°
2026-05-07 17:59 55.13521 -99.03331 36902 ft 499 kts 73°
2026-05-07 17:59 55.15113 -98.91522 36897 ft 499 kts 73°
2026-05-07 18:00 55.16692 -98.79710 36919 ft 499 kts 73°
2026-05-07 18:00 55.18239 -98.68045 36891 ft 499 kts 73°
2026-05-07 18:01 55.19796 -98.56210 36890 ft 499 kts 73°
2026-05-07 18:01 55.21333 -98.44441 36893 ft 499 kts 73°
2026-05-07 18:02 55.23630 -98.26656 36910 ft 499 kts 73°
2026-05-07 18:03 55.25147 -98.14791 36886 ft 499 kts 73°
2026-05-07 18:03 55.26653 -98.02912 36883 ft 499 kts 73°
2026-05-07 18:04 55.28147 -97.91033 36880 ft 499 kts 73°
2026-05-07 18:04 55.29631 -97.79124 36880 ft 499 kts 74°
2026-05-07 18:05 55.31098 -97.67254 36876 ft 499 kts 74°
2026-05-07 18:05 55.32561 -97.55316 36875 ft 500 kts 74°
2026-05-07 18:06 55.34013 -97.43368 36872 ft 500 kts 74°
2026-05-07 18:06 55.35452 -97.31416 36869 ft 500 kts 74°
2026-05-07 18:07 55.36864 -97.19582 36897 ft 500 kts 74°
2026-05-07 18:07 55.38280 -97.07608 36861 ft 501 kts 74°
2026-05-07 18:08 55.39685 -96.95618 36855 ft 501 kts 75°
2026-05-07 18:08 55.41078 -96.83632 36860 ft 501 kts 75°
2026-05-07 18:09 55.42452 -96.71696 36855 ft 501 kts 75°
2026-05-07 18:09 55.43818 -96.59720 36860 ft 501 kts 75°
2026-05-07 18:10 55.45170 -96.47756 36856 ft 502 kts 75°
2026-05-07 18:10 55.46519 -96.35699 36850 ft 502 kts 75°
2026-05-07 18:11 55.47857 -96.23629 36850 ft 502 kts 75°
2026-05-07 18:11 55.49183 -96.11558 36872 ft 502 kts 76°
2026-05-07 18:12 55.50498 -95.99474 36847 ft 502 kts 76°
2026-05-07 18:12 55.51802 -95.87373 36831 ft 502 kts 76°
2026-05-07 18:13 55.53094 -95.75251 36836 ft 502 kts 76°
2026-05-07 18:13 55.54375 -95.63125 36834 ft 502 kts 76°
2026-05-07 18:14 55.55643 -95.50993 36832 ft 502 kts 76°
2026-05-07 18:14 55.56900 -95.38844 36826 ft 503 kts 76°
2026-05-07 18:15 55.58146 -95.26685 36823 ft 503 kts 76°
2026-05-07 18:15 55.59367 -95.14631 36827 ft 503 kts 76°
2026-05-07 18:16 55.60589 -95.02453 36823 ft 503 kts 77°
2026-05-07 18:16 55.61800 -94.90263 36824 ft 503 kts 77°
2026-05-07 18:17 55.62998 -94.78066 36821 ft 503 kts 77°
2026-05-07 18:17 55.64182 -94.65876 36821 ft 503 kts 77°
2026-05-07 18:18 55.65356 -94.53664 36821 ft 503 kts 77°
2026-05-07 18:18 55.66519 -94.41432 36819 ft 503 kts 77°
2026-05-07 18:19 55.67669 -94.29204 36816 ft 503 kts 77°
2026-05-07 18:19 55.68808 -94.16958 36807 ft 503 kts 77°
2026-05-07 18:20 55.69932 -94.04724 36812 ft 503 kts 77°
2026-05-07 18:20 55.71046 -93.92473 36810 ft 503 kts 78°
2026-05-07 18:21 55.72145 -93.80241 36801 ft 503 kts 78°
2026-05-07 18:21 55.73226 -93.68062 36803 ft 503 kts 78°
2026-05-07 18:22 55.74303 -93.55785 36795 ft 503 kts 78°
2026-05-07 18:22 55.75370 -93.43486 36795 ft 503 kts 78°
2026-05-07 18:23 55.76422 -93.31198 36794 ft 503 kts 78°
2026-05-07 18:23 55.77462 -93.18907 36794 ft 504 kts 79°
2026-05-07 18:24 55.78492 -93.06585 36781 ft 504 kts 79°
2026-05-07 18:24 55.79509 -92.94266 36782 ft 504 kts 79°
2026-05-07 18:25 55.80514 -92.81935 36778 ft 504 kts 79°
2026-05-07 18:25 55.81506 -92.69601 36771 ft 504 kts 79°
2026-05-07 18:26 55.82486 -92.57259 36773 ft 504 kts 79°
2026-05-07 18:26 55.83454 -92.44912 36765 ft 504 kts 79°
2026-05-07 18:27 55.84410 -92.32544 36766 ft 504 kts 79°
2026-05-07 18:27 55.85353 -92.20186 36762 ft 504 kts 80°
2026-05-07 18:28 55.86284 -92.07819 36762 ft 505 kts 80°
2026-05-07 18:28 55.87197 -91.95512 36757 ft 505 kts 80°
2026-05-07 18:29 55.88103 -91.83120 36757 ft 505 kts 80°
2026-05-07 18:29 55.88998 -91.70723 36755 ft 505 kts 80°
2026-05-07 18:30 55.89878 -91.58349 36752 ft 505 kts 81°
2026-05-07 18:30 55.90748 -91.45929 36749 ft 505 kts 81°
2026-05-07 18:31 55.91604 -91.33514 36741 ft 505 kts 81°
2026-05-07 18:31 55.92308 -91.23173 36741 ft 505 kts 81°
2026-05-07 18:32 55.93144 -91.10734 36749 ft 505 kts 81°
2026-05-07 18:32 55.93966 -90.98296 36735 ft 505 kts 81°
2026-05-07 18:33 55.94776 -90.85846 36734 ft 506 kts 81°
2026-05-07 18:33 55.95574 -90.73377 36732 ft 506 kts 81°
2026-05-07 18:34 55.96357 -90.60944 36725 ft 506 kts 81°
2026-05-07 18:34 55.97126 -90.48519 36726 ft 506 kts 82°
2026-05-07 18:35 55.97888 -90.36020 36728 ft 507 kts 81°
2026-05-07 18:35 55.98637 -90.23509 36722 ft 507 kts 82°
2026-05-07 18:36 55.99373 -90.11017 36721 ft 507 kts 82°
2026-05-07 18:36 56.00311 -89.98567 37015 ft 503 kts 75°
2026-05-07 18:36 56.01098 -89.92482 37235 ft 502 kts 74°
2026-05-07 18:37 56.01929 -89.86423 37377 ft 501 kts 73°
2026-05-07 18:37 56.02783 -89.80373 37514 ft 502 kts 73°
2026-05-07 18:37 56.03643 -89.74351 37672 ft 501 kts 73°
2026-05-07 18:37 56.04504 -89.68320 37811 ft 501 kts 73°
2026-05-07 18:38 56.05359 -89.62301 37956 ft 501 kts 74°
2026-05-07 18:38 56.06211 -89.56252 38072 ft 501 kts 74°
2026-05-07 18:38 56.07046 -89.50281 38182 ft 501 kts 74°
2026-05-07 18:38 56.07886 -89.44235 38326 ft 501 kts 73°
2026-05-07 18:39 56.08724 -89.38183 38417 ft 501 kts 74°
2026-05-07 18:39 56.10388 -89.26078 38593 ft 500 kts 73°
2026-05-07 18:40 56.12053 -89.13877 38703 ft 502 kts 75°
2026-05-07 18:40 56.13707 -89.01677 38702 ft 504 kts 74°
2026-05-07 18:41 56.15332 -88.89569 38701 ft 504 kts 74°
2026-05-07 18:41 56.16954 -88.77380 38702 ft 504 kts 74°
2026-05-07 18:42 56.18571 -88.65144 38700 ft 504 kts 75°
2026-05-07 18:42 56.20176 -88.52893 38700 ft 504 kts 75°
2026-05-07 18:43 56.21769 -88.40639 38701 ft 504 kts 76°
2026-05-07 18:43 56.23349 -88.28361 38704 ft 504 kts 76°
2026-05-07 18:44 56.24917 -88.16074 38696 ft 504 kts 75°
2026-05-07 18:44 56.26471 -88.03801 38690 ft 504 kts 76°
2026-05-07 18:45 56.28015 -87.91499 38700 ft 504 kts 76°
2026-05-07 18:45 56.29548 -87.79180 38691 ft 504 kts 76°